{"data":{"norad_id":39075,"epoch":"2026-05-25T00:39:52.856640Z","epoch_age_seconds":62805,"freshness":"FRESH","line1":"1 39075U 13005D   26145.02769510 -.00000099  00000+0  29237-4 0  9996","line2":"2 39075  52.0081 270.0960 0000508 131.7219 228.3691 12.62264885614469","mean_motion":12.62264885,"eccentricity":5.08e-5,"inclination_deg":52.0081,"raan_deg":270.096,"arg_perigee_deg":131.7219,"mean_anomaly_deg":228.3691,"bstar":2.9237e-5,"rev_number":61446,"period_min":114.08065114637,"perigee_km":1413.2141503877,"apogee_km":1414.00579188,"semimajor_km":7791.7469711339,"source":"CELESTRAK","updated_at":"2026-05-25T13:38:23.046753Z"}}